Location: Dronrijp
(53.1946°N, 5.6450°E)
Time: 03:12:41
(UTC+00:00)

Daily predictions for brighter satellites

Satellite Brightness Start Highest point End
(mag) Time Altitude Azimuth Time Altitude Azimuth Time Altitude Azimuth
ATLAS 2AS CENTAUR R/B 4.1 02:06:16 37° NNE 02:06:16 37° NNE 02:12:04 10° ENE
Cosmos 1980 Rocket 4.3 02:20:43 22° ENE 02:20:43 22° ENE 02:23:23 10° E
ATLAS 5 CENTAUR R/B 4.0 02:41:10 85° SE 02:41:10 85° SE 03:04:44 10° SE
COSMOS 2455 4.4 02:43:57 29° NNE 02:43:57 29° NNE 02:48:53 10° E
USA 234 3.8 02:40:04 10° ENE 02:44:57 52° NE 02:44:57 52° NE
COSMOS 2406 3.9 03:12:36 51° ENE 03:12:36 51° ENE 03:17:16 10° NE
SL-16 R/B 4.4 03:21:55 14° N 03:21:55 14° N 03:24:06 10° NNE
Cosmos 2082 Rocket 3.9 03:22:45 14° SSE 03:26:44 30° ESE 03:31:37 10° NE
CZ-4C R/B 2.6 03:40:02 58° N 03:40:02 58° N 03:45:44 10° NE
NOSS 2-2 (C) 4.5 03:40:36 63° N 03:41:13 67° NE 03:48:26 10° ESE
Cosmos 2239 Rocket 4.3 03:42:47 87° WNW 03:42:47 87° WNW 03:48:56 10° N
Cosmos 1833 Rocket 3.2 03:46:04 40° SSE 03:47:48 55° ESE 03:53:17 10° NE
Lacrosse 5 rocket 3.2 03:51:05 24° NE 03:51:05 24° NE 03:52:43 10° ENE
Cosmos 2123 Rocket 3.8 03:44:54 10° NNW 03:51:07 78° W 03:57:18 10° S
SL-16 R/B 3.3 03:50:44 23° N 03:53:48 40° NE 03:59:08 10° ESE
Cosmos 2237 Rocket 4.5 03:52:18 12° NNW 03:54:06 13° N 03:56:49 10° NE
IDEFIX/ARIANE 42P 2.9 03:50:04 10° NNE 03:54:04 53° N 03:54:04 53° N
Cosmos 2360 Rocket 4.0 03:52:56 15° NNW 03:56:27 26° NE 04:01:10 10° E
CZ-2C R/B 3.0 03:52:09 10° NNE 03:57:03 54° E 04:01:45 10° S
ATLAS 2AS CENTAUR R/B 3.3 03:53:43 32° NW 03:57:26 60° NNE 04:04:42 10° ESE
Lacrosse 5 3.3 03:56:32 26° S 03:58:14 32° SE 04:02:44 10° ENE
CZ-4B R/B 4.1 03:57:47 10° NNE 04:01:08 35° E 04:02:10 29° SE
ASTEX 1 3.7 03:56:55 10° SSE 04:01:49 65° E 04:06:47 10° N
Cosmos 1980 Rocket 2.0 04:02:33 71° NW 04:03:08 82° WSW 04:08:50 10° SSE
Cosmos 2322 Rocket 3.3 04:01:37 20° NNW 04:05:08 41° NE 04:10:29 10° ESE
Cosmos 1821 Rocket 4.0 04:06:55 56° NW 04:06:55 56° NW 04:12:33 10° N
Cosmos 1461 3.7 04:09:41 42° NNE 04:09:41 42° NNE 04:12:26 10° NE
Cosmos 1356 Rocket 3.8 04:08:04 53° NNE 04:08:51 65° ENE 04:13:07 10° SSE
Cosmos 1605 Rocket 4.1 04:03:39 10° S 04:09:50 75° E 04:15:59 10° NNE
NOSS 2-2 (E) 4.4 04:08:33 54° NW 04:10:05 86° SW 04:17:48 10° SE
ADEOS II 4.2 04:07:32 10° N 04:08:25 14° NNW 04:08:25 14° NNW
SL-24 R/B 4.2 04:06:37 10° N 04:11:33 81° W 04:11:46 78° SW
SL-4 R/B 2.3 04:17:16 73° SSW 04:17:31 75° S 04:22:22 10° E
Meteor 2-2 Rocket 4.1 04:12:27 10° NNW 04:18:08 80° W 04:23:46 10° S
COSMOS 2441 4.2 04:13:30 10° NNE 04:18:22 76° WNW 04:18:58 66° SW
COSMO-SKYMED 1 2.9 04:21:07 10° SSE 04:25:26 66° ENE 04:29:37 11° N
Meteor 1-31 Rocket 2.8 04:22:37 10° NNE 04:26:29 75° ESE 04:28:08 32° S
Meteor 1-27 4.3 04:24:44 26° NNW 04:27:51 54° W 04:33:31 10° S
Cosmos 2333 Rocket 4.2 04:24:58 10° NNW 04:29:19 22° NNE 04:33:43 10° E
USA 234 3.4 04:22:53 10° E 04:29:23 67° N 04:32:17 35° WNW
COSMOS 2455 3.0 04:27:07 27° NNW 04:30:36 74° NE 04:36:37 10° SE
PAYLOAD A 4.0 04:25:26 10° NNE 04:30:42 73° WNW 04:35:55 11° SSW
Cosmos 2360 4.4 04:31:12 46° WSW 04:31:29 46° WSW 04:36:55 10° S
Cosmos 1535 Rocket 4.5 04:28:40 24° SW 04:32:23 56° WNW 04:38:27 10° N
SJ 16-02 2.8 04:28:55 10° S 04:32:59 38° ESE 04:37:02 10° NE
STARLINK-52 4.3 04:32:53 35° S 04:33:18 37° SSE 04:36:36 10° E
Cosmos 1484 Rocket 3.8 04:29:45 10° NNE 04:33:38 47° E 04:37:30 10° S
Cosmos 1869 3.1 04:33:50 76° WSW 04:33:50 76° WSW 04:37:39 10° S
Cosmos 2112 Rocket 4.0 04:34:37 43° WNW 04:36:04 58° WSW 04:41:17 10° S
MSX 3.8 04:30:34 10° N 04:36:12 58° WNW 04:39:48 23° SW
Cosmos 1777 Rocket 4.2 04:38:41 44° WNW 04:39:11 46° NW 04:44:14 10° NNE
Okean O Rocket 3.6 04:35:50 10° NNE 04:39:41 30° E 04:43:29 10° SSE
Cosmos 2278 4.3 04:41:04 35° WSW 04:41:04 35° WSW 04:45:46 10° S
COBE Rocket 3.9 04:38:01 10° S 04:43:09 65° W 04:48:13 10° NNW
Cosmos 1697 Rocket 4.0 04:45:09 22° SW 04:45:09 22° SW 04:47:54 10° SSW
Cosmos 2151 4.4 04:39:39 10° SSE 04:43:41 40° E 04:47:45 10° NNE
ADEOS 3.9 04:38:52 10° N 04:43:43 40° WNW 04:44:06 39° WNW
Cosmos 1680 Rocket 3.8 04:43:02 41° W 04:43:49 45° WSW 04:48:51 10° S
H-2A R/B 2.8 04:42:14 10° N 04:46:36 49° WNW 04:47:32 42° WSW
STARLINK-29 3.9 04:46:54 37° SSW 04:47:43 46° SSE 04:51:05 10° E
Cosmos 1892 3.7 04:45:25 10° SSE 04:49:03 46° E 04:52:42 10° NNE
ALOS 3.5 04:44:40 10° NNE 04:49:10 44° E 04:53:37 10° S
SKYMED 3 4.4 04:45:09 10° S 04:49:30 76° WSW 04:53:53 10° NNW
Cosmos 2219 Rocket 4.0 04:45:23 10° NNW 04:49:59 25° NE 04:54:35 10° E
NOSS 2-1 (E) 4.0 04:50:28 35° NNW 04:50:38 36° NNW 04:54:45 10° NE
COSMOS 2406 3.8 04:54:42 32° WNW 04:56:14 37° NW 05:01:34 10° NNE
STARLINK-60 3.4 04:55:29 43° SW 04:56:17 59° SSE 04:59:36 10° E
Cosmos 1459 Rocket 4.3 04:51:27 10° S 04:57:35 68° E 05:03:50 10° NNE
STARLINK-46 2.6 05:00:14 72° W 05:00:30 88° S 05:03:29 10° E
SL-27 R/B 2.5 04:58:25 10° SSW 05:01:42 69° ESE 05:05:02 10° NNE
Cosmos 158 Rocket 4.0 04:59:51 24° NW 05:02:35 51° WSW 05:07:19 10° S
PSLV R/B 3.6 05:00:53 10° NNE 05:04:42 81° WNW 05:08:35 10° SSW
FALCON 9 DEB 3.5 05:04:14 32° SW 05:05:34 58° SSE 05:08:57 10° E
CZ-4B R/B 4.3 05:03:05 10° N 05:07:23 49° WNW 05:11:43 10° SW
SL-16 R/B 4.4 05:04:40 10° NNW 05:07:42 14° NNE 05:10:43 10° NE
NOSS 3-4 (A) 3.8 05:03:04 18° NW 05:08:23 86° NE 05:15:57 10° SE
NOSS 3-4 (C) 3.8 05:03:10 18° NW 05:08:29 86° NE 05:16:03 10° SE
USA 116 3.1 05:05:57 10° S 05:09:08 69° WSW 05:12:00 14° NNW
Cosmos 990 Rocket 4.0 05:04:40 10° SSW 05:09:50 82° ESE 05:15:05 10° NNE
Cosmos 2082 Rocket 2.2 05:04:48 10° SW 05:10:29 63° NW 05:16:12 10° NNE
In-Cosmos 22 Rocket 4.1 05:05:44 10° S 05:11:06 87° ESE 05:16:39 10° NNE
Cosmos 2084 Rocket 3.5 05:08:57 26° WSW 05:11:23 65° NW 05:15:50 10° NE
SKYMED 2 3.8 05:09:27 10° S 05:13:38 46° W 05:17:51 10° NNW
deb Kosmos-1763 4.0 05:10:20 10° SSW 05:14:02 86° WNW 05:17:47 10° NNE
Helios 1A Rocket 3.5 05:10:20 10° NNE 05:14:27 61° ESE 05:18:30 10° S
Cosmos 1515 Rocket 4.1 05:12:03 10° N 05:16:22 60° ENE 05:20:39 10° SSE
Cosmos 2100 Rocket 3.9 05:10:22 10° S 05:16:35 87° WNW 05:22:47 10° N
Cosmos 1825 3.8 05:13:23 10° SSE 05:16:52 37° E 05:20:22 10° NNE
Cosmos 1328 Rocket 3.4 05:14:27 10° NNW 05:18:51 86° WSW 05:23:09 10° S
NOSS 3-3 (A) 4.3 05:14:38 10° SSW 05:20:37 69° SE 05:27:24 10° NE
NOSS 3-3 (C) 4.4 05:14:45 10° SSW 05:20:44 69° SE 05:27:30 10° NE
COSMOS 2428 4.1 05:16:25 10° NNW 05:21:36 34° NE 05:26:46 10° ESE
Cosmos 839 Rocket 4.0 05:18:10 10° SW 05:25:05 73° NW 05:31:17 10° NE
Cosmos 1151 Rocket 2.9 05:22:04 10° NNW 05:26:29 79° W 05:30:51 10° S
Cosmos 1802 Rocket 4.1 05:22:15 10° S 05:28:41 90° SE 05:35:10 10° N
Lacrosse 5 rocket 1.5 05:26:44 23° NW 05:28:41 48° N 05:32:11 10° E
CZ-4C R/B 3.4 05:25:13 19° WNW 05:28:57 35° N 05:35:18 10° ENE
Cosmos 967 Rocket 4.5 05:23:00 10° SW 05:29:21 75° NW 05:35:50 10° NE
Cosmos 1833 Rocket 3.2 05:27:50 15° WSW 05:32:00 37° NW 05:37:13 10° NNE
Cosmos 1076 Rocket 4.2 05:29:31 10° SW 05:33:24 31° WNW 05:37:18 10° N
IDEFIX/ARIANE 42P 4.0 05:30:51 10° NNW 05:34:06 17° NW 05:34:51 17° WNW
Cosmos 2058 3.4 05:30:12 10° SW 05:34:07 36° WNW 05:38:03 10° N
CZ-2C R/B 3.3 05:30:49 10° N 05:35:01 28° WNW 05:39:06 10° WSW
Cosmos 1898 Rocket 3.5 05:29:58 10° SW 05:35:11 65° WNW 05:40:29 10° NNE
CZ-4B R/B 3.7 05:33:13 10° N 05:36:10 24° WNW 05:38:16 15° WSW
Cosmos 2061 Rocket 4.0 05:30:49 10° S 05:37:05 89° W 05:43:21 10° N
SL-16 R/B 2.4 05:32:38 10° NW 05:38:07 51° WSW 05:43:35 10° S
Cosmos 2237 Rocket 4.0 05:35:43 10° NNW 05:40:21 25° NE 05:44:58 10° E
Lacrosse 5 1.9 05:35:47 10° WSW 05:40:52 86° NNW 05:45:58 10° ENE
Cosmos 2360 Rocket 2.3 05:35:33 10° NNW 05:41:17 87° ENE 05:46:58 10° SSE
Cosmos 1408 Rocket 3.5 05:40:29 10° SSW 05:44:48 85° W 05:49:10 10° N
Cosmos 1980 Rocket 3.6 05:44:23 15° WNW 05:46:17 17° W 05:49:49 10° SW
Cosmos 1437 4.0 05:43:41 10° S 05:46:36 43° E 05:49:33 10° NNE
Okean 3 Rocket 3.9 05:43:42 10° SSW 05:48:02 45° WNW 05:52:23 10° N
Cosmos 1461 4.2 05:46:05 15° WNW 05:48:08 22° NNW 05:51:21 10° NNE
ATLAS 2AS CENTAUR R/B 3.1 05:41:10 11° NW 05:48:32 56° SW 05:55:28 10° SSE
Cosmos 1937 Rocket 3.4 05:44:03 10° SW 05:49:11 67° WNW 05:54:20 10° NNE
STARLINK-43 4.3 05:45:39 10° SW 05:49:15 47° SSE 05:52:52 10° E
Cosmos 2322 Rocket 2.5 05:43:54 10° NW 05:49:21 49° WSW 05:54:46 10° S
SJ-12 4.3 05:45:24 10° N 05:49:21 43° WNW 05:53:17 10° SW
Cosmos 1500 Rocket 4.4 05:45:35 10° S 05:49:56 56° E 05:54:19 10° NNE
NOAA 6 4.0 05:45:45 10° NNE 05:50:54 76° WNW 05:56:01 10° SSW
Cosmos 1782 4.0 05:49:36 10° N 05:53:30 45° ENE 05:57:20 10° SSE
STARLINK-67 3.1 05:51:52 16° W 05:53:43 45° SSW 05:56:16 10° SE
Cosmos 2173 Rocket 4.1 05:49:33 10° SSW 05:55:40 53° WNW 06:01:45 10° N
Cosmos 1766 Rocket 3.8 05:52:10 10° SSW 05:56:20 46° WNW 06:00:34 10° N
SL-4 R/B 2.9 05:52:53 13° W 05:57:06 50° SSW 06:01:44 10° SE
Meteor 1-31 Rocket 4.4 05:58:11 10° NNW 06:00:26 15° WNW 06:02:41 10° W
Cosmos 494 Rocket 4.3 05:55:51 10° NNW 06:01:09 74° ENE 06:06:23 10° SSE
Cosmos 1238 Rocket 4.4 05:55:22 10° S 06:01:59 73° E 06:08:03 10° NNE
COSMO-SKYMED 1 4.0 05:59:04 10° SW 06:02:02 18° W 06:05:02 10° NW
CZ-2C R/B 3.8 05:59:04 10° SSE 06:03:35 86° ENE 06:08:14 10° NNW
SAR-Lupe-2 3.7 06:00:59 10° SSE 06:04:33 80° ENE 06:08:09 10° NNW
Cosmos 1484 Rocket 4.0 06:04:39 10° N 06:07:49 23° WNW 06:10:58 10° WSW
Cosmos 1400 Rocket 2.8 06:03:51 10° NNW 06:08:00 78° WSW 06:12:03 10° S
CZ-4 R/B 4.1 06:05:35 10° NE 06:08:45 23° E 06:11:51 10° SE
Gbstr 26 Del rocket 3.4 06:05:34 10° WSW 06:09:13 50° SSE 06:12:55 10° E
STARLINK-52 3.2 06:06:49 10° W 06:10:21 84° S 06:13:53 10° E
Cosmos 2233 Rocket 4.2 06:04:23 10° S 06:10:40 83° E 06:17:02 10° NNE
Cosmos 2322 3.8 06:05:17 10° NNW 06:11:02 88° ENE 06:16:43 10° SSE
SJ 16-02 2.0 06:07:38 10° WSW 06:11:37 33° NW 06:15:38 10° N
Cosmos 1864 Rocket 4.5 06:05:38 10° SSW 06:11:44 68° WNW 06:17:56 10° N
Meteor 1-26 Rocket 4.3 06:06:21 10° NNW 06:12:10 73° W 06:17:46 10° S
USA 234 3.4 06:05:48 10° ESE 06:12:22 81° SSW 06:18:57 10° WNW
Cosmos 2228 Rocket 3.2 06:10:10 10° NNW 06:14:41 60° W 06:19:12 10° S
Cosmos 2333 Rocket 2.7 06:08:57 10° NNW 06:14:43 65° NE 06:20:27 10° SE
COSMOS 2455 3.8 06:11:02 10° NW 06:16:04 28° WSW 06:21:05 10° SSW
Okean O Rocket 2.0 06:12:04 10° N 06:16:08 39° WNW 06:20:11 10° SW
CZ-4B R/B 3.3 06:11:25 10° N 06:16:37 52° WNW 06:21:51 10° SW
Cosmos 1606 3.1 06:16:44 10° NNW 06:20:20 42° W 06:23:55 10° SSW
Cosmos 2151 3.9 06:17:26 10° SW 06:21:08 27° WNW 06:24:50 10° N
Feng Yun 1-1 Rocket 4.4 06:17:08 10° NNE 06:22:35 82° ESE 06:28:00 10° SSW
STARLINK-29 3.2 06:21:19 10° W 06:24:49 88° S 06:28:19 10° E
Cosmos 1892 4.0 06:22:12 10° WSW 06:25:00 19° WNW 06:27:49 10° NNW
ATLAS CENTAUR R/B 2.5 06:20:59 10° SSW 06:25:49 59° SE 06:30:30 10° NE
ALOS 3.0 06:22:22 10° N 06:26:28 31° WNW 06:30:32 10° WSW
Cosmos 2298 Rocket 4.0 06:21:51 10° SW 06:27:09 69° WNW 06:32:29 10° NNE
